Tracking 35275 objects as of 8-Sep-2026
HD Live streaming from Space Station
objects crossing your sky now

STARLINK-1167

Track STARLINK-1167 now!
10-day predictions
STARLINK-1167 is classified as:


NORAD ID: 45071
Int'l Code: 2020-006AD
Launch date: January 29, 2020
Source: United States (US)
Launch site: AIR FORCE EASTERN TEST RANGE (AFETR)
Your satellite tracking list
Your tracking list is empty




NASA's NSSDC Master Catalog

Two Line Element Set (TLE):
1 45071U 20006AD  26250.90378829  .00022083  00000-0  46310-3 0  9998
2 45071  53.1521 122.0045 0003551 147.0612 213.0617 15.45342447364906
Source of the keplerian elements: AFSPC